This is the latest recevied weather packets stored in our database for station/object N3DXC. If no packets are shown the sender has not sent any weather packets the latest 10 day(s).
| Time | Temp. | Humidity | Pressure | Rain* | Wind** | Luminosity | Snow |
|---|---|---|---|---|---|---|---|
| 1777627802 | 0.56° C | 97% | 1013.6 hPa | 0 mm | - | - | - |
| 1777627507 | 0.56° C | 97% | 1013.7 hPa | 0 mm | - | - | - |
| 1777627202 | 0.56° C | 97% | 1013.7 hPa | 0 mm | - | - | - |
| 1777626903 | 0° C | 96% | 1013.7 hPa | 0 mm | - | - | - |
| 1777626602 | 0° C | 96% | 1013.7 hPa | 0 mm | - | - | - |
| 1777626302 | 0° C | 96% | 1013.8 hPa | 0 mm | - | - | - |
| 1777626002 | 0° C | 96% | 1013.9 hPa | 0 mm | - | - | - |
| 1777625704 | 0° C | 96% | 1014 hPa | 0 mm | - | - | - |
| 1777625403 | 0.56° C | 96% | 1014 hPa | 0 mm | - | - | - |
| 1777625105 | 0° C | 96% | 1014 hPa | 0 mm | - | - | - |
| 1777624802 | 0.56° C | 96% | 1014 hPa | 0 mm | - | - | - |
| 1777624502 | 1.11° C | 96% | 1014 hPa | 0 mm | - | - | - |
| 1777624202 | 1.11° C | 96% | 1014 hPa | 0 mm | - | - | - |
| 1777623904 | 1.11° C | 96% | 1014 hPa | 0 mm | - | - | - |
| 1777623602 | 1.11° C | 96% | 1013.9 hPa | 0 mm | - | - | - |
| 1777623302 | 0.56° C | 96% | 1013.8 hPa | 0 mm | - | - | - |
| 1777623004 | 0.56° C | 96% | 1013.7 hPa | 0 mm | - | - | - |
| 1777622702 | 1.11° C | 96% | 1013.9 hPa | 0 mm | - | - | - |
| 1777622402 | 1.11° C | 96% | 1014 hPa | 0 mm | - | - | - |
| 1777622106 | 1.11° C | 96% | 1014 hPa | 0 mm | - | - | - |
| 1777621803 | 1.11° C | 96% | 1014 hPa | 0 mm | - | - | - |
| 1777621503 | 1.67° C | 96% | 1014 hPa | 0 mm | - | - | - |
| 1777621203 | 1.11° C | 96% | 1014 hPa | 0 mm | - | - | - |
| 1777620904 | 1.11° C | 96% | 1014.1 hPa | 0 mm | - | - | - |
| 1777620604 | 1.11° C | 95% | 1014 hPa | 0 mm | - | - | - |
* Rain latest hour (hover to see other rain measurements)
** Current wind speed in m/s (hover to see current wind gust speed)